Time,TemperatureF,DewpointF,PressureIn,WindDirection,WindDirectionDegrees,WindSpeedMPH,WindSpeedGustMPH,Humidity,HourlyPrecipIn,Conditions,Clouds,dailyrainin,SolarRadiationWatts/m^2,SoftwareType,DateUTC
2013-09-07 00:00:00,64.0,60.0,-100.00,SE,135,1.0,-999.0,87,-99.99,,,-99.99,0.000000,,2013-09-07 04:00:00,
2013-09-07 00:43:00,64.0,60.0,-100.00,SE,135,1.0,-999.0,87,-99.99,,,-99.99,0.000000,,2013-09-07 04:43:00,
2013-09-07 00:54:00,64.0,60.0,-100.00,SE,135,1.0,-999.0,87,-99.99,,,-99.99,0.000000,,2013-09-07 04:54:00,
2013-09-07 01:00:00,65.0,59.0,-100.00,SSE,157,1.0,-999.0,81,-99.99,,,-99.99,0.000000,,2013-09-07 05:00:00,
2013-09-07 01:42:00,65.0,59.0,-100.00,SSE,157,1.0,-999.0,81,-99.99,,,-99.99,0.000000,,2013-09-07 05:42:00,
2013-09-07 01:52:00,65.0,59.0,-100.00,SSE,157,1.0,-999.0,81,-99.99,,,-99.99,0.000000,,2013-09-07 05:52:00,
2013-09-07 02:00:00,64.0,58.0,-100.00,SSE,157,1.0,-999.0,81,-99.99,,,-99.99,0.000000,,2013-09-07 06:00:00,
2013-09-07 02:43:00,64.0,58.0,-100.00,SSE,157,1.0,-999.0,81,-99.99,,,-99.99,0.000000,,2013-09-07 06:43:00,
2013-09-07 02:52:00,64.0,58.0,-100.00,SSE,157,1.0,-999.0,81,-99.99,,,-99.99,0.000000,,2013-09-07 06:52:00,
2013-09-07 03:00:00,64.0,56.0,-100.00,South,180,1.0,-999.0,77,-99.99,,,-99.99,0.000000,,2013-09-07 07:00:00,
2013-09-07 03:43:00,64.0,56.0,-100.00,South,180,1.0,-999.0,77,-99.99,,,-99.99,0.000000,,2013-09-07 07:43:00,
2013-09-07 03:52:00,64.0,56.0,-100.00,South,180,1.0,-999.0,77,-99.99,,,-99.99,0.000000,,2013-09-07 07:52:00,
2013-09-07 04:00:00,64.0,56.0,-100.00,South,180,1.0,-999.0,75,-99.99,,,-99.99,0.000000,,2013-09-07 08:00:00,
2013-09-07 04:43:00,64.0,56.0,-100.00,South,180,1.0,-999.0,75,-99.99,,,-99.99,0.000000,,2013-09-07 08:43:00,
2013-09-07 04:53:00,64.0,56.0,-100.00,South,180,1.0,-999.0,75,-99.99,,,-99.99,0.000000,,2013-09-07 08:53:00,
2013-09-07 05:00:00,63.0,56.0,-100.00,SSW,202,1.0,-999.0,77,-99.99,,,-99.99,0.000000,,2013-09-07 09:00:00,
2013-09-07 05:42:00,63.0,56.0,-100.00,SSW,202,1.0,-999.0,77,-99.99,,,-99.99,0.000000,,2013-09-07 09:42:00,
2013-09-07 05:52:00,63.0,56.0,-100.00,SSW,202,1.0,-999.0,77,-99.99,,,-99.99,0.000000,,2013-09-07 09:52:00,
2013-09-07 06:00:00,61.0,56.0,-100.00,South,180,1.0,-999.0,84,-99.99,,,-99.99,0.000000,,2013-09-07 10:00:00,
2013-09-07 06:41:00,61.0,56.0,-100.00,South,180,1.0,-999.0,84,-99.99,,,-99.99,0.000000,,2013-09-07 10:41:00,
2013-09-07 06:52:00,61.0,56.0,-100.00,South,180,1.0,-999.0,84,-99.99,,,-99.99,0.000000,,2013-09-07 10:52:00,
2013-09-07 07:00:00,60.0,57.0,-100.00,South,180,1.0,-999.0,87,-99.99,,,-99.99,0.000000,,2013-09-07 11:00:00,
2013-09-07 07:43:00,60.0,57.0,-100.00,South,180,1.0,-999.0,87,-99.99,,,-99.99,0.000000,,2013-09-07 11:43:00,
2013-09-07 07:52:00,60.0,57.0,-100.00,South,180,1.0,-999.0,87,-99.99,,,-99.99,0.000000,,2013-09-07 11:52:00,
2013-09-07 09:00:00,65.0,60.0,-100.00,SSW,202,3.0,-999.0,84,-99.99,,,-99.99,98.599998,,2013-09-07 13:00:00,
2013-09-07 09:42:00,65.0,60.0,-100.00,SSW,202,3.0,-999.0,84,-99.99,,,-99.99,98.599998,,2013-09-07 13:42:00,
2013-09-07 09:52:00,65.0,60.0,-100.00,SSW,202,3.0,-999.0,84,-99.99,,,-99.99,98.599998,,2013-09-07 13:52:00,
2013-09-07 11:00:00,75.0,64.0,-100.00,SW,225,3.0,-999.0,68,-99.99,,,-99.99,314.359985,,2013-09-07 15:00:00,
2013-09-07 11:44:00,75.0,64.0,-100.00,SW,225,3.0,-999.0,68,-99.99,,,-99.99,314.359985,,2013-09-07 15:44:00,
2013-09-07 11:54:00,75.0,64.0,-100.00,SW,225,3.0,-999.0,68,-99.99,,,-99.99,314.359985,,2013-09-07 15:54:00,
2013-09-07 12:00:00,79.0,65.0,-100.00,SW,225,4.0,-999.0,61,-99.99,,,-99.99,460.519989,,2013-09-07 16:00:00,
2013-09-07 12:43:00,79.0,65.0,-100.00,SW,225,4.0,-999.0,61,-99.99,,,-99.99,460.519989,,2013-09-07 16:43:00,
2013-09-07 12:53:00,79.0,65.0,-100.00,SW,225,4.0,-999.0,61,-99.99,,,-99.99,460.519989,,2013-09-07 16:53:00,
2013-09-07 13:00:00,83.0,64.0,-100.00,West,270,4.0,-999.0,53,-99.99,,,-99.99,624.080017,,2013-09-07 17:00:00,
2013-09-07 13:43:00,83.0,64.0,-100.00,West,270,4.0,-999.0,53,-99.99,,,-99.99,624.080017,,2013-09-07 17:43:00,
2013-09-07 13:52:00,83.0,64.0,-100.00,West,270,4.0,-999.0,53,-99.99,,,-99.99,624.080017,,2013-09-07 17:52:00,
2013-09-07 14:00:00,82.0,63.0,-100.00,West,270,3.0,-999.0,53,-99.99,,,-99.99,531.280029,,2013-09-07 18:00:00,
2013-09-07 14:43:00,82.0,63.0,-100.00,West,270,3.0,-999.0,53,-99.99,,,-99.99,531.280029,,2013-09-07 18:43:00,
2013-09-07 14:52:00,82.0,63.0,-100.00,West,270,3.0,-999.0,53,-99.99,,,-99.99,531.280029,,2013-09-07 18:52:00,
2013-09-07 16:00:00,83.0,63.0,-100.00,West,270,3.0,-999.0,50,-99.99,,,-99.99,339.880005,,2013-09-07 20:00:00,
2013-09-07 16:42:00,83.0,63.0,-100.00,West,270,3.0,-999.0,50,-99.99,,,-99.99,339.880005,,2013-09-07 20:42:00,
2013-09-07 16:53:00,83.0,63.0,-100.00,West,270,3.0,-999.0,50,-99.99,,,-99.99,339.880005,,2013-09-07 20:53:00,
2013-09-07 17:00:00,77.0,62.0,-100.00,West,270,3.0,-999.0,59,-99.99,,,-99.99,73.080002,,2013-09-07 21:00:00,
2013-09-07 17:44:00,77.0,62.0,-100.00,West,270,3.0,-999.0,59,-99.99,,,-99.99,73.080002,,2013-09-07 21:44:00,
2013-09-07 17:54:00,77.0,62.0,-100.00,West,270,3.0,-999.0,59,-99.99,,,-99.99,73.080002,,2013-09-07 21:54:00,
2013-09-07 18:00:00,70.0,65.0,-100.00,West,270,2.0,-999.0,84,-99.99,,,-99.99,48.720001,,2013-09-07 22:00:00,
2013-09-07 18:43:00,70.0,65.0,-100.00,West,270,2.0,-999.0,84,-99.99,,,-99.99,48.720001,,2013-09-07 22:43:00,
2013-09-07 18:53:00,70.0,65.0,-100.00,West,270,2.0,-999.0,84,-99.99,,,-99.99,48.720001,,2013-09-07 22:53:00,
2013-09-07 19:00:00,73.0,67.0,-100.00,SSW,202,1.0,-999.0,81,-99.99,,,-99.99,178.639999,,2013-09-07 23:00:00,
2013-09-07 19:42:00,73.0,67.0,-100.00,SSW,202,1.0,-999.0,81,-99.99,,,-99.99,178.639999,,2013-09-07 23:42:00,
2013-09-07 19:53:00,73.0,67.0,-100.00,SSW,202,1.0,-999.0,81,-99.99,,,-99.99,178.639999,,2013-09-07 23:53:00,
2013-09-07 21:00:00,70.0,68.0,-100.00,East,90,0.0,-999.0,92,-99.99,,,-99.99,1.160000,,2013-09-08 01:00:00,
2013-09-07 21:42:00,70.0,68.0,-100.00,East,90,0.0,-999.0,92,-99.99,,,-99.99,1.160000,,2013-09-08 01:42:00,
2013-09-07 21:52:00,70.0,68.0,-100.00,East,90,0.0,-999.0,92,-99.99,,,-99.99,1.160000,,2013-09-08 01:52:00,
2013-09-07 22:00:00,69.0,67.0,-100.00,ESE,112,1.0,-999.0,93,-99.99,,,-99.99,1.160000,,2013-09-08 02:00:00,
2013-09-07 22:43:00,69.0,67.0,-100.00,ESE,112,1.0,-999.0,93,-99.99,,,-99.99,1.160000,,2013-09-08 02:43:00,
2013-09-07 22:52:00,69.0,67.0,-100.00,ESE,112,1.0,-999.0,93,-99.99,,,-99.99,1.160000,,2013-09-08 02:52:00,
2013-09-07 23:00:00,-999.0,-99.9,-100.00,East,90,1.0,-999.0,-999,-99.99,,,-99.99,,,2013-09-08 03:00:00,
2013-09-07 23:44:00,69.0,67.0,-100.00,East,90,1.0,-999.0,93,-99.99,,,-99.99,1.160000,,2013-09-08 03:44:00,
2013-09-07 23:54:00,69.0,67.0,-100.00,East,90,1.0,-999.0,93,-99.99,,,-99.99,1.160000,,2013-09-08 03:54:00,